Regional Weather Roundup
Issued by NWS Upton, NY

Home | Current Version | Previous Version | Text Only | Print | Product List | Glossary On
Versions: 1 2 3 4 5 6 7 8 9 10 11 12 13 14 15 16 17 18 19 20 21 22 23 24 25 26 27
000
ASUS41 KOKX 010104
RWROKX

REGIONAL WEATHER ROUNDUP
NATIONAL WEATHER SERVICE NEW YORK NY
900 PM EDT TUE MAY 31 2016

NOTE: "FAIR" INDICATES FEW OR NO CLOUDS BELOW 12,000 FEET WITH NO
SIGNIFICANT WEATHER AND/OR OBSTRUCTIONS TO VISIBILITY.

NYZ071-072-176-178-NJZ106-104-010200-
NEW YORK CITY METRO AREA


CITY           SKY/WX    TMP DP  RH WIND       PRES   REMARKS
CENTRAL PARK   CLEAR     74  62  66 CALM      29.97S
LAGUARDIA APRT MOCLDY    75  69  81 SW7       29.94R
KENNEDY INTL   MOCLDY    70  66  87 S6        29.96R
NEWARK/LIBERTY MOCLDY    77  66  68 CALM      29.94R
BRNX BOT. GARD   N/A     70  63  78 E3        29.95R
TETERBORO      PTCLDY    76  61  59 SW3       29.93R
$$

NYZ177-179-078>081-010200-
LONG ISLAND NEW YORK

CITY           SKY/WX    TMP DP  RH WIND       PRES   REMARKS
FARMINGDALE    CLEAR     69  65  86 SW6       29.96R
ISLIP          PTCLDY    69  65  86 SW6       29.95R
SHIRLEY        CLEAR     69  66  90 SW6       29.96R
RIVERHEAD        N/A     68  66  94 SW1       29.94R
WESTHAMPTON    CLEAR     66  64  93 SW5       29.97R
EAST HAMPTON   FAIR      66  64  94 SW3       29.94R
MONTAUK POINT    N/A     66  63  90 SW3       29.96R
$$

NYZ052-065-067-010200-
HUDSON VALLEY

CITY           SKY/WX    TMP DP  RH WIND       PRES   REMARKS
WHITE PLAINS   CLEAR     71  61  70 CALM      29.95R
NEWBURGH       PTCLDY    73  61  64 NW6       29.96R
MONTGOMERY     CLOUDY    69  61  75 CALM      29.95R
POUGHKEEPSIE   PTCLDY    73  60  63 CALM      29.93R
ALBANY         PTCLDY    73  41  31 NW7       29.97R
$$

NJZ001-105-106-008-010-013-015-019>022-104-010200-
NEW JERSEY

CITY           SKY/WX    TMP DP  RH WIND       PRES   REMARKS
NEWARK/LIBERTY MOCLDY    77  66  68 CALM      29.94R
TETERBORO      PTCLDY    76  61  59 SW3       29.93R
CALDWELL       PTCLDY    78  61  55 CALM      29.94S
MORRISTOWN     CLOUDY    72  59  64 CALM      29.95R
SOMERVILLE     PTCLDY    72  62  71 CALM      29.93R
SUSSEX         CLEAR     70  60  70 CALM      29.96R
ANDOVER          N/A     69  61  75 CALM      29.97R
TRENTON        CLEAR     79  55  43 CALM      29.94R
MILLVILLE      CLEAR     70  66  87 CALM      29.97R
ATLANTIC CITY  CLEAR     72  65  78 S6        29.97R
WRIGHTSTOWN    NOT AVBL
TOMS RIVER     CLEAR     72  64  78 S5        29.97R
BELMAR         CLEAR     72  67  84 VRB3      29.97R
$$

PAZ047>061-062-071-010200-
EASTERN PENNSYLVANIA

CITY           SKY/WX    TMP DP  RH WIND       PRES   REMARKS
PHILADELPHIA   CLOUDY    84  51  31 W5        29.95R
ALLENTOWN      CLEAR     78  58  49 CALM      29.95R
SCRANTON       CLEAR     72  57  59 E6        29.98R
$$

CTZ002-004>006-009-010-012-RIZ004-006-007-MAZ004-011-015-010200-
SOUTHERN NEW ENGLAND
 IN CT

CITY           SKY/WX    TMP DP  RH WIND       PRES   REMARKS
BRADLEY INTL   PTCLDY    74  55  51 N6        29.93R
HARTFORD       CLEAR     80  58  46 MISG      29.93R
DANBURY        PTCLDY    74  61  63 SW5       29.96R
WTRBRY/OXFORD  PTCLDY    72  61  68 S3        29.97S
BRIDGEPORT     CLEAR     72  62  71 W5        29.94R
MERIDEN        CLEAR     74  63  68 CALM      29.94R
NEW HAVEN      CLEAR     70  63  78 SW5       29.94R
CHESTER        FAIR      70  64  83 VRB7      29.95R
GROTON         CLEAR     67  64  90 SW3       29.94R
WILLIMANTIC    CLEAR     75  59  57 CALM      29.94R

 IN RI

CITY           SKY/WX    TMP DP  RH WIND       PRES   REMARKS
PROVIDENCE     CLEAR     73  63  70 SW8       29.93R
BLOCK ISLAND   CLEAR     63  62  97 SW15      29.96R
WESTERLY       CLEAR     69  62  78 SW6       29.95R

 IN MA

CITY           SKY/WX    TMP DP  RH WIND       PRES   REMARKS
BOSTON         PTCLDY    80  50  34 W9        29.90R
WORCESTER      CLEAR     68  49  50 W9        29.97R
WESTFIELD      CLEAR     73  53  49 NW3       29.95R
PROVINCETOWN   CLEAR     63  60  90 SW10      29.92R
NANTUCKET      CLEAR     61  59  93 SW7       29.96R
$$

ANZ330-335-338-340-345-350-353-355-010200-
COASTAL MARINE OBSERVATIONS


STATION/POSITION TIME  SKY/WX   TEMP    WIND        PRES    VSBY  WAVE
                                AIR SEA DIR/SP/G                  HT/PER
                 (UTC)          (F)     (DEG/KT/KT) (MB)    (MI)  (FT/S)
NY HARB ENTRANCE 2350            63 61  210/  8/ 10 1013.6          3/ 7
20S FIRE ISLAND  2350            65 64  230/  6/  8 1013.7          4/ 8
GREAT SOUTH BAY  0015            68 72  280/ 10/ 12   N/A
23 SSW MONTAUK P 2350            63 60  250/ 10/ 10 1013.3          4/ 8
15 E BARNEGAT LI 0022               64                N/A           5/ 8
HUDSON CANYON    2350            65 62              1014.4          6/ 8
KINGS POINT      0000                               1013.6
EXECUTION ROCKS  NOT AVBL
CENTRAL LI SOUND 0000            69     220/  8/  8   N/A           1/ 2
EASTERN LI SOUND 0000            63 55  250/  6/  6   N/A
ROBBINS REEF     0006            72                 1013.1
$$


>>>>>>>>>>>>>>>>>>>>>>>>>>>> KEY <<<<<<<<<<<<<<<<<<<<<<<<<<<
>                                                          <
>     SKY/WX - SKY CONDITION/PRESENT WEATHER               <
>     TMP    - TEMPERATURE IN FAHRENHEIT                   <
>     DP     - DEWPOINT IN FAHRENHEIT                      <
>     RH     - RELATIVE HUMIDITY IN PERCENT                <
>     WIND   - DIRECTION AND SPEED IN MPH                  <
>     PRES   - MEAN SEA LEVEL PRESSURE IN INCHES OF HG     <
>     WCI    - WIND CHILL INDEX                            <
>     VSB    - VISIBILITY IN MILES                         <
>     HX     - HEAT INDEX                                  <
>     TC     - TEMPERATURE IN CELSIUS                      <
>     VRB    - VARIABLE WIND DIRECTION                     <
>                                                          <
>>>>>>>>>>>>>>>>>>>>>>>>>>>> KEY <<<<<<<<<<<<<<<<<<<<<<<<<<<






USA.gov is the U.S. government's official web portal to all federal, state and local government web resources and services.